Location: Unspecified
(0.0000°N, 0.0000°E)
Time: 19:05:18
(UTC+00:00)

USA 404 - Visible Passes

Search period start: 17 April 2026 00:00
Search period end: 27 April 2026 00:00
Orbit: 575 x 578 km, 70.0° (Epoch: 16 November)

Date Brightness Start Highest point End Pass type
(mag) Time Alt. Az. Time Alt. Az. Time Alt. Az.
19 Apr ? 19:21:08 10° S 19:23:17 27° S 19:23:17 27° S visible
20 Apr ? 19:24:57 10° SSW 19:29:11 84° WNW 19:33:24 10° NNE visible
21 Apr ? 19:29:03 10° SSW 19:33:05 44° WNW 19:37:06 10° N visible
22 Apr ? 19:33:32 10° SW 19:37:00 25° WNW 19:40:27 10° NNW visible
23 Apr ? 19:38:40 10° WSW 19:40:55 14° WNW 19:43:10 10° NW visible
